Temperature
18 16 16 17 17 18 18 17 17 18 18 18 17 16 16 16 16 16 17 17 17 17 18 17 17 17 17 17 17 17 17 16 16 16 16 16 16 16 16 16 16 16 16 16
17 17 18 18 18 18 18 17 17 17 18 18 16 16 16 16 16 17 17 17 17 17 17 17 17 17 17 17 17 17 17 16 16 16 16 16 16 16 16 16 16 16 16 15
17 18 19 18 18 18 17 17 17 17 17 17 17 16 16 16 16 17 17 17 18 18 18 18 18 17 17 17 17 17 17 17 16 16 16 16 16 16 16 16 16 15 15 15
17 18 19 18 18 18 17 18 18 18 17 16 17 15 16 15 15 16 17 17 18 18 18 18 18 18 18 17 17 17 17 17 16 16 16 16 16 16 16 16 16 15 15 15
17 18 18 18 18 18 18 18 18 17 16 16 16 15 15 15 15 15 16 17 18 18 18 18 18 18 18 18 17 17 17 16 16 16 16 16 16 16 15 15 15 15 15 15
18 18 18 18 18 18 18 17 16 15 15 15 16 15 15 15 15 16 16 17 18 18 18 18 18 18 18 18 17 17 17 16 16 16 16 16 16 16 15 15 15 15 15 15
18 18 18 18 18 18 17 16 15 15 14 15 15 15 15 16 16 16 17 17 18 18 18 18 18 18 18 18 17 17 17 16 16 16 16 16 16 16 15 15 15 15 15 15
17 17 18 18 18 17 16 16 15 16 15 15 15 15 16 17 17 17 18 18 18 18 18 18 18 18 18 18 17 17 17 17 16 16 16 16 16 16 15 15 15 15 15 15
16 17 18 18 18 17 16 15 15 15 15 15 15 15 16 17 16 16 17 17 17 17 18 18 18 18 18 18 17 17 17 17 17 16 16 16 16 16 15 15 15 15 15 15
17 17 18 18 18 17 16 15 14 14 15 15 15 16 16 17 16 16 16 16 17 17 17 18 18 18 18 18 17 17 17 17 17 16 16 16 16 16 15 15 15 15 15 15
17 17 17 18 17 17 16 15 14 13 14 14 15 15 17 16 16 16 16 17 17 17 17 17 18 18 18 17 17 17 17 17 17 16 16 16 16 16 15 15 15 15 15 15
16 15 15 17 17 17 17 16 14 15 14 14 14 15 17 16 16 16 16 17 17 17 18 18 18 17 17 17 17 17 17 17 17 16 16 16 16 15 15 15 15 15 15 15
16 15 15 16 17 17 17 16 15 14 13 13 14 16 16 16 16 16 17 17 17 17 17 17 17 17 17 17 17 17 17 17 16 16 16 16 15 15 15 15 15 15 15 15
16 15 15 16 16 16 17 16 15 14 14 14 14 16 16 16 15 16 17 17 17 17 17 17 17 17 17 17 17 17 17 17 16 16 16 16 15 15 15 15 15 15 15 15
15 15 16 16 17 17 17 17 16 16 15 15 16 16 16 16 15 16 17 17 17 17 17 17 17 17 17 17 17 17 17 16 16 16 16 16 15 15 15 15 15 15 15 14
14 16 16 16 17 17 17 17 16 16 16 16 16 16 16 16 16 16 16 16 16 17 17 17 17 17 17 17 17 17 16 16 16 16 16 15 15 15 15 15 15 14 14 14
13 15 15 15 16 17 17 17 17 16 16 16 16 16 16 15 15 16 16 16 17 17 17 17 17 17 17 17 17 17 16 16 16 16 16 15 15 15 15 15 15 14 14 14
13 13 13 14 16 16 17 17 17 17 16 16 16 16 16 16 16 17 17 17 17 17 17 17 17 17 17 17 17 16 16 16 16 16 16 15 15 15 15 15 14 14 14 14
13 13 13 13 14 15 17 17 17 17 16 16 16 15 16 16 16 16 17 17 17 18 18 17 17 17 17 17 16 16 16 16 16 16 16 15 15 15 15 14 14 14 14 14
13 13 13 13 15 15 16 17 18 17 16 16 16 15 15 15 14 15 17 17 17 17 17 17 17 17 17 16 16 16 16 16 16 16 15 15 15 15 15 14 14 14 14 14
13 13 13 13 14 15 16 17 17 17 16 17 17 17 16 16 16 17 18 17 17 17 17 17 17 17 17 16 16 16 16 16 16 15 15 15 15 15 14 14 14 14 13 13
13 13 12 12 14 15 16 16 16 17 18 18 18 18 17 17 17 17 17 17 17 17 17 17 17 17 16 16 16 16 16 15 15 15 15 15 15 14 14 14 14 13 13 13
12 13 12 13 14 15 16 17 18 19 18 18 18 18 18 17 17 17 17 17 17 17 17 17 17 16 16 16 16 16 16 15 15 15 15 15 14 14 14 13 13 13 13 13
12 12 12 12 13 15 17 18 18 19 19 19 19 18 18 17 17 17 16 16 16 16 16 16 16 16 16 16 16 16 15 15 15 15 14 14 14 14 13 13 13 13 13 12
12 12 12 13 13 15 17 18 18 19 19 19 18 18 17 17 17 17 16 16 16 16 16 16 16 16 16 16 15 15 15 15 15 14 14 14 14 13 13 13 13 12 12 12
11 12 13 14 15 14 16 18 18 18 18 18 18 17 17 17 17 17 16 16 16 16 16 16 16 15 15 15 15 15 15 14 14 14 14 13 13 13 13 13 12 12 12 11
Wind_Speed
3 4 3 6 6 4 5 4 3 2 2 3 4 4 4 5 5 6 6 6 7 7 5 4 4 5 5 5 5 5 5 4 4 3 3 2 2 2 2 3 4 5 5 6
4 1 4 4 4 4 4 3 2 1 0 2 2 4 4 6 7 8 8 8 9 7 4 4 5 5 6 6 6 5 5 5 4 3 3 2 2 2 2 2 4 5 5 5
5 3 3 5 4 4 2 4 4 3 1 2 2 3 4 4 5 6 6 7 7 9 8 6 6 6 6 6 7 7 6 5 4 4 4 3 3 3 3 3 2 3 4 5
2 2 3 4 3 5 3 4 4 4 3 1 2 3 5 5 5 7 8 8 8 8 7 7 7 7 7 7 6 6 6 5 5 5 6 5 3 2 1 1 1 3 4 4
3 2 3 4 4 5 4 2 3 3 3 0 1 2 6 2 6 9 10 10 9 9 8 8 8 8 7 7 6 6 6 5 5 5 6 6 4 3 2 2 3 3 3 4
2 2 3 4 2 4 5 6 6 5 3 1 4 4 6 5 8 8 8 9 10 9 9 7 6 6 5 5 6 6 6 5 5 5 5 6 6 5 4 3 2 2 2 2
2 2 2 3 4 2 5 5 3 2 1 4 2 3 8 7 6 8 9 9 9 9 9 7 7 7 7 7 7 7 7 6 5 6 5 5 6 6 5 4 3 2 1 1
3 4 4 3 5 5 5 7 6 4 4 4 1 5 7 5 4 4 6 7 8 9 9 9 9 8 8 9 8 8 7 6 6 6 5 5 5 4 3 3 3 3 2 1
6 4 2 3 3 8 6 4 5 5 2 1 4 5 6 2 1 1 3 5 7 9 9 9 8 8 8 9 9 9 8 7 6 6 6 5 5 5 4 3 3 2 2 1
7 3 1 1 5 3 5 7 5 4 3 2 5 4 4 4 3 2 4 6 7 8 8 8 8 8 8 8 7 7 7 7 6 6 5 5 5 5 5 4 4 3 2 2
5 4 1 2 4 5 4 4 4 4 4 4 3 6 5 6 5 5 5 6 7 8 9 9 8 8 7 6 7 7 7 6 6 6 5 5 5 5 5 4 4 3 3 3
4 4 2 4 3 4 5 6 7 4 3 4 3 6 5 4 4 5 5 4 5 6 7 7 8 7 7 7 7 7 7 7 7 6 6 6 5 5 5 4 4 4 3 3
6 5 2 3 3 1 3 4 5 5 4 4 4 6 3 1 1 3 4 4 4 5 5 5 6 7 8 8 8 7 7 7 6 6 6 6 5 5 5 4 4 4 4 3
5 4 6 8 7 5 3 4 5 5 4 4 6 7 4 2 2 3 3 4 4 5 6 6 7 7 7 8 8 8 7 7 7 7 7 7 6 6 5 5 4 4 4 4
4 4 4 5 4 4 4 5 7 6 7 7 7 7 7 6 6 5 4 3 4 4 6 7 7 7 6 6 7 7 7 7 7 8 7 7 5 5 5 5 4 4 4 4
3 4 2 1 2 4 3 5 7 7 6 6 4 6 6 4 3 3 4 5 5 5 6 7 7 7 7 7 7 7 8 8 8 8 7 6 6 6 5 5 5 5 5 4
2 4 4 3 2 1 4 7 7 5 5 7 7 7 3 2 5 6 6 6 6 6 6 7 8 8 8 8 8 9 8 8 8 8 7 7 7 7 6 6 6 5 5 4
5 4 3 2 2 4 7 4 6 6 5 6 5 4 4 4 3 3 4 6 6 6 6 6 7 7 7 7 7 7 7 8 8 8 7 7 7 7 7 6 6 5 4 4
5 6 4 4 3 5 6 3 5 5 4 5 6 3 2 2 3 1 2 5 6 6 6 6 7 7 7 7 7 8 8 8 7 7 7 7 8 7 7 7 7 5 5 4
4 4 5 4 4 6 7 4 3 4 3 4 7 6 5 5 2 4 3 3 3 3 3 4 4 5 6 6 7 8 8 8 8 8 7 7 7 8 8 8 6 5 5 4
4 3 4 4 4 6 7 2 5 5 7 4 7 7 7 6 5 3 2 2 3 3 2 3 5 6 7 7 9 8 8 8 7 6 6 7 7 7 7 7 5 6 5 5
7 6 5 5 4 6 3 5 7 7 3 5 6 6 7 5 3 3 3 2 2 2 2 4 5 5 5 8 9 8 7 6 6 7 7 6 6 6 6 7 6 6 6 6
6 7 6 7 7 5 4 5 4 3 4 4 5 5 6 5 3 3 2 2 2 2 2 3 5 6 5 6 8 8 6 6 7 7 7 6 6 6 6 7 7 6 5 5
3 3 4 3 6 5 4 3 2 3 4 4 4 6 7 6 5 4 3 2 2 2 2 3 6 6 5 5 6 6 6 7 8 8 6 6 6 6 5 5 5 6 6 5
5 5 3 3 5 3 3 3 3 2 2 3 3 4 6 7 5 5 4 3 2 2 2 4 6 6 6 5 5 5 6 8 8 7 7 6 6 6 6 4 4 5 4 6
5 6 6 6 6 5 5 4 4 4 4 5 5 3 3 5 6 5 4 3 3 3 3 4 4 5 5 5 5 5 6 8 9 7 7 6 5 5 5 5 4 3 3 5
Wind_Direction
61 87 172 196 188 172 153 150 176 235 203 151 188 212 225 204 198 208 206 205 209 222 219 186 172 158 149 151 153 152 144 142 129 113 106 98 81 50 43 53 83 99 103 102
56 257 226 167 150 134 140 147 179 293 181 157 193 245 234 208 208 208 208 209 210 211 201 183 171 163 168 169 166 157 159 157 151 135 123 120 112 85 61 50 66 81 97 102
170 236 163 138 142 148 170 178 188 183 79 56 110 299 249 234 221 218 211 208 208 205 201 196 183 179 173 178 178 174 169 160 155 142 116 92 68 56 49 40 41 46 86 96
208 252 145 149 178 162 206 207 181 164 141 243 167 265 266 227 228 226 221 209 207 205 198 193 187 186 185 188 178 168 165 156 151 146 141 137 132 124 128 100 72 53 73 87
225 182 154 185 205 169 186 132 130 146 144 86 199 210 281 219 231 235 223 212 209 200 193 193 196 194 189 177 168 162 155 149 147 146 147 140 132 129 110 83 79 61 52 67
232 207 183 193 157 139 121 77 59 55 76 270 225 191 274 229 220 223 217 211 205 197 193 195 192 177 171 160 157 156 153 153 149 144 142 145 146 142 131 112 100 73 54 47
319 290 221 151 116 89 100 98 54 11 353 256 233 206 251 248 225 214 213 209 199 189 185 184 181 177 172 164 164 162 159 162 158 151 154 157 154 152 154 150 144 131 103 70
184 267 222 180 168 166 163 147 159 194 221 272 259 237 258 262 243 214 205 195 185 182 183 186 189 182 177 173 170 167 169 170 165 160 160 158 153 149 153 152 145 148 156 166
181 240 254 182 151 138 144 173 164 136 153 242 266 278 300 294 327 160 173 171 183 188 186 186 186 182 178 178 180 177 174 171 171 168 159 157 158 155 154 148 141 141 139 139
163 203 267 137 89 58 143 144 111 127 151 258 290 274 255 262 239 194 183 186 188 182 181 180 181 183 182 182 178 173 173 173 171 166 168 166 162 158 153 146 147 145 140 113
149 161 258 130 176 177 124 122 122 130 154 163 264 275 237 227 211 197 201 197 188 183 182 182 184 182 175 169 168 171 171 167 167 170 167 155 154 151 150 151 154 151 140 138
147 133 197 240 246 178 161 163 149 154 200 175 188 268 286 237 208 195 199 196 190 185 180 176 173 165 162 169 176 176 172 171 173 167 156 154 149 144 150 154 151 142 141 137
148 128 109 356 348 130 154 158 151 130 130 161 181 263 317 8 164 187 193 192 181 176 168 162 162 167 171 176 178 177 173 173 166 157 153 150 151 154 157 154 145 142 140 133
135 137 170 195 215 197 195 177 159 140 163 198 220 249 282 272 235 225 209 186 171 173 171 166 170 176 178 178 179 177 178 174 165 158 158 161 168 166 161 152 144 142 138 133
129 175 207 225 216 183 202 204 189 191 191 195 229 232 246 230 216 210 191 161 157 172 176 174 176 180 179 174 176 175 174 172 167 162 166 172 164 153 147 143 140 136 134 135
112 165 169 270 219 190 217 221 203 204 198 214 230 254 258 216 174 177 178 170 175 189 195 185 178 179 182 182 179 174 174 173 166 167 171 163 152 150 151 148 142 135 130 126
137 145 152 233 286 117 243 222 198 199 198 187 213 237 233 183 192 195 188 183 188 197 198 187 182 188 189 189 183 181 180 170 168 170 167 162 159 158 158 151 141 142 143 138
154 139 143 151 98 228 246 236 191 187 211 204 206 217 201 203 195 182 174 182 194 197 195 192 188 189 185 182 177 168 160 163 168 169 167 165 163 163 154 147 149 148 141 144
167 148 134 144 189 267 288 233 172 172 238 215 198 199 182 139 85 357 208 187 195 199 198 196 189 183 175 172 166 155 158 161 164 170 172 171 167 163 158 159 161 154 147 147
111 126 131 143 169 229 247 240 184 132 257 231 187 189 174 127 131 257 232 193 198 201 201 185 165 154 162 169 156 153 160 163 176 181 176 169 167 165 165 165 158 148 149 153
125 113 151 164 200 253 253 233 128 158 236 212 184 185 173 182 202 217 173 182 191 193 192 163 156 164 171 162 155 159 165 181 186 169 157 156 161 162 159 153 150 145 143 136
169 161 174 157 184 247 243 140 172 210 206 175 179 181 181 187 155 133 136 143 142 150 146 151 156 159 156 158 157 161 178 183 158 146 148 151 151 155 150 145 144 144 143 140
189 184 181 187 209 239 219 210 225 179 175 182 176 183 167 162 167 157 143 129 124 147 150 148 148 143 145 160 163 167 177 156 143 140 146 146 140 140 143 145 146 143 145 149
239 158 155 220 257 256 251 248 240 201 198 191 171 163 159 163 166 156 144 133 120 126 139 138 138 140 150 158 161 166 157 148 142 143 145 141 138 134 133 140 148 151 157 158
210 163 165 233 271 295 289 247 223 187 155 136 133 152 162 155 159 159 156 156 150 121 117 136 146 152 157 154 154 152 146 143 140 142 143 141 138 138 135 134 146 160 172 174
205 182 177 215 221 200 236 242 198 175 181 168 149 141 151 159 159 154 156 157 145 130 121 132 138 145 150 149 148 146 147 147 145 145 148 148 144 142 140 135 113 91 134 151
Height
1508 1514 1518 1517 1516 1518 1521 1525 1528 1525 1521 1524 1527 1528 1527 1526 1528 1528 1529 1531 1532 1534 1536 1539 1541 1543 1544 1546 1548 1550 1552 1554 1555 1556 1557 1559 1560 1561 1561 1562 1563 1563 1564 1565
1514 1516 1512 1512 1514 1517 1520 1526 1527 1525 1521 1524 1528 1528 1525 1525 1525 1526 1527 1529 1530 1533 1535 1537 1539 1541 1543 1545 1547 1550 1552 1553 1555 1556 1557 1559 1560 1561 1562 1563 1563 1564 1565 1565
1514 1512 1509 1512 1515 1519 1522 1525 1525 1526 1524 1524 1527 1530 1526 1523 1523 1524 1525 1527 1529 1531 1533 1536 1538 1540 1542 1544 1546 1549 1551 1553 1555 1556 1557 1559 1560 1561 1562 1563 1564 1565 1565 1566
1512 1509 1509 1512 1516 1517 1523 1518 1519 1523 1530 1535 1531 1541 1528 1523 1522 1522 1522 1524 1526 1528 1531 1534 1536 1538 1541 1543 1546 1548 1550 1552 1554 1556 1557 1558 1560 1561 1562 1563 1564 1565 1566 1566
1511 1509 1510 1513 1513 1514 1518 1515 1519 1523 1529 1535 1533 1539 1531 1523 1523 1519 1518 1520 1522 1525 1528 1531 1534 1537 1539 1542 1545 1547 1550 1552 1553 1555 1557 1558 1559 1561 1562 1563 1564 1565 1566 1566
1508 1506 1507 1509 1509 1511 1514 1519 1524 1529 1534 1543 1535 1538 1534 1524 1517 1514 1513 1515 1518 1522 1525 1528 1532 1535 1538 1541 1543 1546 1548 1551 1553 1555 1556 1558 1559 1560 1562 1563 1564 1565 1566 1566
1511 1508 1506 1506 1511 1513 1516 1529 1541 1544 1548 1545 1532 1534 1528 1512 1509 1508 1509 1511 1514 1518 1522 1526 1529 1533 1536 1538 1541 1544 1547 1550 1552 1554 1556 1557 1559 1560 1562 1563 1564 1565 1566 1566
1518 1518 1507 1505 1508 1514 1517 1524 1540 1547 1549 1543 1533 1533 1519 1506 1505 1505 1506 1509 1512 1515 1519 1523 1527 1530 1533 1537 1540 1543 1546 1548 1551 1553 1555 1557 1558 1560 1561 1563 1564 1564 1565 1566
1515 1515 1504 1503 1504 1508 1518 1524 1523 1535 1539 1543 1536 1526 1513 1505 1504 1504 1505 1507 1509 1513 1516 1520 1524 1528 1531 1535 1538 1541 1544 1547 1550 1552 1554 1556 1558 1559 1561 1562 1563 1564 1565 1566
1505 1512 1505 1503 1505 1508 1511 1517 1528 1535 1543 1546 1536 1529 1522 1509 1506 1505 1505 1506 1507 1510 1514 1518 1522 1525 1529 1533 1537 1540 1543 1546 1548 1551 1553 1555 1557 1559 1560 1562 1563 1564 1565 1566
1501 1510 1509 1506 1508 1511 1514 1519 1524 1532 1534 1543 1544 1531 1507 1504 1502 1503 1503 1504 1506 1509 1512 1516 1520 1523 1527 1531 1535 1538 1541 1544 1547 1549 1552 1554 1556 1558 1559 1561 1562 1563 1564 1565
1501 1509 1515 1509 1502 1502 1505 1511 1519 1529 1533 1535 1538 1529 1500 1500 1500 1501 1502 1504 1506 1508 1511 1514 1518 1521 1525 1529 1533 1536 1539 1542 1545 1548 1550 1553 1555 1557 1559 1560 1561 1563 1564 1565
1499 1508 1518 1516 1513 1506 1506 1508 1512 1519 1528 1535 1535 1523 1500 1499 1499 1500 1502 1503 1505 1507 1510 1513 1516 1519 1523 1526 1530 1534 1537 1540 1543 1546 1549 1551 1554 1556 1557 1559 1560 1562 1563 1564
1495 1505 1512 1516 1511 1506 1506 1507 1510 1516 1526 1528 1524 1514 1503 1501 1500 1500 1501 1502 1504 1507 1509 1512 1514 1517 1521 1524 1528 1531 1535 1538 1541 1544 1547 1550 1552 1554 1556 1558 1560 1561 1562 1564
1494 1502 1502 1501 1499 1500 1501 1502 1505 1509 1511 1517 1512 1509 1501 1499 1498 1499 1500 1501 1504 1506 1508 1510 1512 1515 1518 1522 1525 1529 1532 1536 1539 1542 1545 1548 1550 1553 1555 1557 1558 1560 1562 1563
1494 1499 1500 1501 1497 1498 1500 1498 1500 1502 1504 1506 1505 1504 1495 1495 1497 1498 1499 1500 1502 1504 1506 1508 1510 1513 1515 1518 1522 1526 1530 1533 1537 1540 1543 1546 1549 1551 1553 1555 1557 1559 1560 1562
1497 1499 1504 1507 1501 1499 1503 1495 1496 1498 1497 1499 1503 1499 1494 1495 1495 1496 1497 1499 1500 1502 1504 1505 1507 1510 1513 1516 1519 1523 1527 1531 1534 1538 1541 1544 1547 1549 1551 1554 1555 1557 1559 1560
1495 1500 1505 1508 1506 1512 1498 1487 1488 1491 1492 1492 1492 1492 1492 1493 1493 1495 1496 1497 1498 1500 1502 1503 1506 1508 1511 1515 1518 1521 1525 1528 1532 1535 1538 1542 1544 1547 1549 1551 1553 1555 1557 1559
1489 1496 1505 1510 1511 1505 1492 1485 1486 1490 1492 1488 1490 1490 1491 1491 1493 1494 1495 1496 1497 1498 1500 1501 1503 1506 1509 1512 1516 1519 1522 1525 1529 1532 1536 1539 1542 1544 1546 1548 1551 1553 1555 1557
1489 1492 1502 1508 1508 1508 1493 1482 1481 1486 1493 1485 1486 1488 1489 1491 1496 1494 1493 1494 1496 1497 1498 1500 1502 1505 1507 1510 1513 1516 1519 1522 1526 1529 1533 1536 1539 1542 1544 1546 1549 1551 1553 1555
1493 1497 1501 1505 1504 1498 1484 1480 1482 1495 1491 1482 1483 1484 1486 1488 1490 1491 1491 1492 1494 1495 1497 1498 1500 1502 1505 1508 1511 1514 1517 1520 1524 1527 1531 1534 1537 1539 1542 1545 1547 1549 1551 1553
1489 1495 1500 1502 1503 1498 1479 1479 1483 1482 1477 1478 1480 1482 1484 1486 1488 1489 1490 1491 1492 1493 1495 1496 1498 1500 1503 1506 1509 1511 1514 1518 1522 1525 1528 1531 1534 1537 1540 1542 1545 1547 1549 1551
1484 1484 1487 1489 1488 1478 1476 1475 1475 1475 1476 1477 1478 1480 1482 1484 1486 1488 1489 1490 1491 1492 1493 1495 1496 1499 1501 1504 1507 1509 1513 1516 1519 1523 1526 1529 1532 1535 1537 1540 1542 1544 1546 1548
1479 1477 1480 1482 1477 1473 1473 1473 1473 1474 1475 1476 1477 1479 1481 1483 1485 1486 1488 1489 1490 1491 1492 1493 1496 1497 1500 1502 1505 1508 1511 1514 1517 1520 1523 1527 1529 1532 1535 1537 1540 1542 1544 1546
1474 1475 1477 1478 1473 1471 1470 1471 1472 1473 1474 1475 1477 1478 1480 1482 1483 1485 1487 1488 1489 1490 1491 1493 1494 1496 1498 1501 1504 1507 1509 1512 1515 1518 1521 1524 1527 1530 1532 1535 1537 1540 1542 1544
1470 1471 1474 1473 1469 1470 1469 1469 1470 1471 1472 1474 1475 1477 1480 1481 1482 1484 1486 1487 1488 1489 1490 1492 1494 1495 1498 1500 1502 1505 1507 1510 1513 1515 1518 1522 1525 1527 1530 1532 1535 1537 1539 1541